Погода в Михайловке

Россия / Орловская область     52°52′47″N   36°09′37″E
темп.,
°C
ветер,
м/с
пор.,
м/с
влажн.,
%
обл.,
%
осадки,
мм/ч
давл.,
гПа
погр.,
м
26 октября, вт
вт2600:00−1юз37735 0.0 1032135
03:00−1юз497599 0.0 1032193
06:00−1юз41078100 0.0 1030217
09:00+1юз51269100 0.0 1030324
12:00+5юз71151100 0.0 1029547
15:00+6юз61250100 0.0 1027636
18:00+4ююз51360100 0.0 1026348
21:00+4юз61559100 0.0 1026416
27 октября, ср
ср2700:00+3юз61563100 0.0 1025395
03:00+2юз61468100 0.0 1024366
06:00+2юз61574100 0.0 1023366
09:00+3юз716728 0.0 1021495
12:00+7юз913605 0.0 1020776
15:00+8зюз71260100 0.0 1019881
18:00+6зюз61174100 0.1 1020548
21:00+6зюз51080100 0.1 1020416
28 октября, чт
чт2800:00+6зюз498594 0.0 1020324
03:00+4юз41093100 0.0 1019235
06:00+5юз51287100 0.0 1018344
09:00+6юз71491100 1.1 1016564
12:00+7зюз61295100 0.8 1016506
15:00+7з61296100 1.3 1015504
18:00+9зсз5129599 0.1 1017469
21:00+8сз5129599 0.1 1019400
29 октября, пт
пт2900:00+6ссз41194100 0.0 1021327
03:00+7ссв5886100 0.0 1024457
06:00+6ссв3688100 0.0 1027289
09:00+6св468293 0.0 1029281
12:00+8вюв336228 0.0 1030879
15:00+9ю22605 0.0 1030865
18:00+6ююз22740 0.0 103110
21:00+5ю228030 0.0 103212
30 октября, сб
сб3000:00+4ююз338698 0.0 103348
03:00+3ююз3489100 0.0 103364
06:00+3ююз349178 0.0 103351
09:00+4ююз25884 0.0 1034151
12:00+8ююз46700 0.0 1033429
15:00+10ююз47662 0.0 1032565
18:00+7ю35835 0.0 103285
21:00+5ю38875 0.0 1033134